User: anonymous   Login
Location: Unspecified
(0.0000°N, 0.0000°E)
Time: 11:31:37
(UTC+00:00)
Language:

COMSATBw-2 - Orbit

View from above orbital plane
View from above orbital plane
View from above satellite
View from above satellite

Ground track
Ground track

The orbit data is extracted from the following two-line orbital elements,

1 36582U 10021B   21271.15396841  .00000088  00000-0  00000+0 0  9993
2 36582   0.0530  96.5574 0002801 116.7457 222.5123  1.00275545 41711
Epoch (UTC): 28 September 2021 03:41:42
Eccentricity: 0.0002801
inclination: 0.0530°
perigee height: 35773 km
apogee height: 35797 km
right ascension of ascending node: 96.5574°
argument of perigee: 116.7457°
revolutions per day: 1.00275545
mean anomaly at epoch: 222.5123°
orbit number at epoch: 4171

The dashed part of the orbit path shows where the satellite is in the earth's shadow,  

DLR